Regional Weather Roundup
Issued by NWS

Home | Current Version | Previous Version | Text Only | Print | Product List | Glossary Off
Versions: 1 2 3 4 5 6 7 8 9 10 11 12 13 14 15 16 17 18 19 20 21 22 23 24 25 26 27 28 29 30 31 32 33 34 35 36 37 38 39 40 41 42 43 44 45 46 47 48 49 50

000
ASUS45 KPSR 010500
RWRAZ

PRELIMINARY ARIZONA REGIONAL HOURLY WEATHER ROUNDUP
NATIONAL WEATHER SERVICE PHOENIX AZ
1000 PM MST SAT JAN 31 2015

NOTE: FAIR INDICATES FEW OR NO CLOUDS BELOW 12,000 FEET WITH NO
SIGNIFICANT WEATHER AND/OR OBSTRUCTIONS TO VISIBILITY.

AZZ001>003-036-010600-
NORTHWEST ARIZONA

CITY           SKY/WX    TMP DP  RH WIND       PRES   REMARKS
KINGMAN        CLEAR     47  39  74 E7        30.02R
$$

AZZ004>008-015-016-018-010600-
NORTH CENTRAL ARIZONA

CITY           SKY/WX    TMP DP  RH WIND       PRES   REMARKS
GRAND CANYON   CLEAR     28  26  92 CALM      30.06R
PRESCOTT       CLEAR     42  39  89 CALM      30.00R
FLAGSTAFF      NOT AVBL
PAYSON         FOG       39  39 100 CALM      30.00S VSB<1/4
$$

AZZ009>014-017-010600-
NORTHEAST ARIZONA

CITY           SKY/WX    TMP DP  RH WIND       PRES   REMARKS
WINSLOW        NOT AVBL
SAINT JOHNS    LGT RAIN  42  39  89 SW8       29.97S
WINDOW ROCK    CLOUDY    36  29  75 N14       30.00R WCI  27
$$

AZZ023-010600-
GREATER PHOENIX AREA

CITY           SKY/WX    TMP DP  RH WIND       PRES   REMARKS
PHOENIX        MOCLDY    55  52  89 CALM      29.93R
GLENDALE       PTCLDY    55  55 100 CALM      29.95R
LUKE AFB       CLEAR     56  53  92 CALM      29.93R
DEER VALLEY    CLEAR     52  51  97 NE3       29.93R
SCOTTSDALE     CLEAR     54  51  90 CALM      29.95R
MESA-GATEWAY   PTCLDY    52  52 100 CALM      29.96R
$$

AZZ027-028-010600-
SOUTHWEST MARICOPA COUNTY AND PINAL COUNTY

CITY           SKY/WX    TMP DP  RH WIND       PRES   REMARKS
CASA GRANDE    PTCLDY    52  48  87 CALM      29.94S
$$

AZZ503-504-507>509-010600-
SOUTHEAST ARIZONA

CITY           SKY/WX    TMP DP  RH WIND       PRES   REMARKS
TUCSON         CLOUDY    52  50  93 CALM      29.96R
DAVIS-MONTHAN  PTCLDY    51  51 100 NW2       29.94R
NOGALES        MOCLDY    46  42  86 E6        29.95R
SIERRA VISTA   CLOUDY    45  43  93 CALM      29.97R
SAFFORD        CLOUDY    49  48  97 NW7       29.94S
$$

AZZ020-021-025-026-031-010600-
SOUTHWEST ARIZONA

CITY           SKY/WX    TMP DP  RH WIND       PRES   REMARKS
YUMA           NOT AVBL
$$

CAZ031-033-041-043-047-048-061-010600-
SOUTHERN CALIFORNIA

CITY           SKY/WX    TMP DP  RH WIND       PRES   REMARKS
DOWNTOWN L.A.  CLEAR     59  54  83 CALM      29.97R
L.A. AIRPORT   CLEAR     59  55  87 NE3       29.97R
SAN DIEGO      PTCLDY    61  52  72 CALM      29.99R
BURBANK        CLEAR     58  52  80 CALM      29.97R
ONTARIO        PTCLDY    59  51  75 CALM      29.97R
RIVERSIDE      CLEAR     57  45  64 S8        29.97R
PALM SPRINGS   CLEAR     62  42  47 W5        29.98R
EL CENTRO NAS  CLEAR     58  42  55 W7        29.94R
IMPERIAL       CLEAR     57  47  69 NW6       29.93R
BLYTHE         CLEAR     57  51  80 W5        29.94R
$$

NVZ020-UTZ003-010600-
SOUTHERN NEVADA-UTAH

CITY           SKY/WX    TMP DP  RH WIND       PRES   REMARKS
LAS VEGAS      NOT AVBL
SALT LAKE CITY CLEAR     35  30  82 N5        30.14R WCI  31
$$

NMZ009-TXZ055-010600-
NEW MEXICO-WEST TEXAS

CITY           SKY/WX    TMP DP  RH WIND       PRES   REMARKS
ALBUQUERQUE    MOCLDY    38  34  85 N5        29.96R WCI  34
EL PASO        MOCLDY    53  42  66 W5        29.92R
$$


........................KEY........................
SKY/WX - SKY CONDITION/WEATHER
TMP    - TEMPERATURE IN FAHRENHEIT
DP     - DEW POINT IN FAHRENHEIT
RH     - RELATIVE HUMIDITY IN PERCENT
WIND   - DIRECTION AND SPEED IN MILES PER HOUR (MPH)
VRB    - VARIABLE WIND DIRECTION
PRES   - MEAN SEA LEVEL PRESSURE IN INCHES OF MERCURY
         F - FALLING PRESSURE   R - RISING PRESSURE
         S - STEADY PRESSURE
VSB    - VISIBILITY IN MILES
HX     - HEAT INDEX IN FAHRENHEIT
WCI    - WIND CHILL INDEX IN FAHRENHEIT
TC     - TEMPERATURE IN CELSIUS WHICH IS ALSO KNOWN AS
         TEMPERATURE IN CENTIGRADE
AFB    - AIR FORCE BASE
         LUKE AFB IS LUKE AIR FORCE BASE
         DAVIS-MONTHAN IS DAVIS-MONTHAN AIR FORCE BASE
NAS    - NAVAL AIR STATION
         EL CENTRO NAS IS EL CENTRO NAVAL AIR STATION
N/A    - NOT AVAILABLE


USA.gov is the U.S. government's official web portal to all federal, state and local government web resources and services.